DMSP 5D-2 F11 DEB, 28300

Orbit data source: Space-Track

DMSP 5D-2 F11 DEB, 28300 is space debris in SSO originally from a launch on Thu, 28 Nov 1991 UTC launched from the Air Force Western Test Range (AFWTR). Debris objects in space refer to the collection of defunct objects orbiting the Earth. Examples of debris include non-operational satellites, rocket bodies, and fragments generated from explosions, collisions, or faulty payload assembly.

Loading next visibility...
Identifier
28300, 1991-082M
Orbit
SSO
Country
Flag of USUS
Related business
Manufacturer
Unknown
Mission
Spacecraft
Bus & Motor
Unknown
Mass
Unknown
Launch date (UTC)
1991-11-28 (34 years ago)
Launch vehicle
Unknown
Launch site
Air Force Western Test Range (AFWTR)
Object type
Payload
Rocket body
Debris
Shape & HBR
Unknown shape, 0.1 m
Radar Cross Section
Small (<0.1 m²)

Expand to show TLE details & history
Last TLE update: 8 hours ago

TLE from 8 hours ago
0 DMSP 5D-2 F11 DEB
1 28300U 91082M   26121.39211006  .00004107  00000-0  12554-2 0  9998
2 28300  98.5340 173.8176 0008096  50.7197 328.8464 14.42347941145632
Epoch: 2026-05-01T09:24Z
TLE epoch observation values (Epoch: 2026-05-01T09:24:38.309Z)
Latitude
19.29314°
Longitude
170.33797°
Altitude
748.29 km
Speed
7.485 km/s
True Right ascension
11h 23m 17s
True Declination
19° 11' 10"
Sunlit
Object was in full shadow at epoch
Visualization orbit readout
Latitude
Unknown
Longitude
Unknown
Altitude
Unknown
Speed
Unknown
Apparent Right ascension
Unknown
Apparent Declination
Unknown
Sunlit
N/A
Visualization observer readout
Local Sidereal Time
01:16:24
Azimuth
Unknown
Elevation
Unknown
Doppler factor
Unknown
Orbital elements
Apogee altitude
753.641 km
Perigee altitude
742.103 km
Semi-major axis
7,126.009 km
Eccentricity
0.00081
Inclination
98.534°
RAAN
173.8176°
Arg. of periapsis
50.7197°
True anomaly
328.79836°
Mean anomaly
328.8464°
Eccentric anomaly
328.82239°
Mean motion
3.60806 °/min
Orbital period
99.78 mins
BSTAR
0.0012554
Loading maneuver chart data...
Computing Atmospheric mass density...
Loading historical data...
Loading historical data...
Loading historical data...
Loading historical data...
Loading historical data...
Loading historical data...
Loading historical data...

Documentation

Showing up to 5 results
|